Tracking 17264 objects as of 29-August-2015
HD Live streaming from Space Station

TERRIERS

Track TERRIERS now!
10-day predictions
TERRIERS is classified as:


NORAD ID: 25735
Int'l Code: 1999-026A
Perigee: 449.9 km
Apogee: 454.6 km
Inclination: 97.1 °
Period: 93.5 minutes
Semi major axis: 6823 km
RCS: 0.4968 m2 (medium)
Launch date: May 18, 1999
Source: United States (US)
Your satellite tracking list
Your tracking list is empty





NASA's NSSDC Master Catalog

Two Line Element Set (TLE):
1 25735U 99026A   15239.91093443 +.00004911 +00000-0 +12376-3 0  9998
2 25735 097.1202 046.5363 0003506 248.2115 257.2072 15.40335881904544

Source of the keplerian elements: AFSPC

N2YO: 245